Regional Weather Roundup
Issued by NWS Green Bay, WI

Home | Current Version | Previous Version | Text Only | Print | Product List | Glossary On
Versions: 1 2 3 4 5 6 7 8 9 10 11 12 13 14 15 16 17 18 19 20 21 22 23 24 25 26 27 28 29 30 31 32 33 34 35 36 37 38 39 40 41 42 43 44 45 46 47 48 49 50
000
ASUS43 KGRB 200210
RWRGRB

NORTH-CENTRAL AND NORTHEAST WISCONSIN REGIONAL WEATHER ROUNDUP
NATIONAL WEATHER SERVICE GREEN BAY WI
900 PM CDT TUE AUG 19 2014

WIZ005-009-010>012-018-019-200300-
NORTH CENTRAL WISCONSIN

CITY           SKY/WX    TMP DP  RH WIND       PRES   REMARKS
IRONWOOD       CLOUDY    57  57 100 CALM      29.77R
MANITOWISH WTR CLOUDY    60  59  94 N5        29.79R
ARBOR VITAE    PTCLDY    59  56  87 CALM      29.79R
EAGLE RIVER    CLOUDY    60  59  96 NW3       29.78R
LAND O LAKES   CLOUDY    60  58  92 NW6       29.79R
RHINELANDER    PTCLDY    60  58  92 NW3       29.78R
PHILLIPS       CLOUDY    63  61  93 N3        29.78R
ANTIGO         MOCLDY    62  60  95 NW3       29.77R
TOMAHAWK       PTCLDY    59  57  94 CALM      29.79R
MERRILL        MOCLDY    64  64  99 CALM      29.77R
$$

WIZ013-073-200300-
NORTHEAST WISCONSIN

CITY           SKY/WX    TMP DP  RH WIND       PRES   REMARKS
IRON MOUNTAIN  CLOUDY    65  58  78 NW10      29.72R
MARINETTE      MOCLDY    66  63  88 CALM      29.70R
OCONTO         CLOUDY    65  65 100 CALM      29.72R
$$

WIZ017-030-035>037-045-200300-
CENTRAL WISCONSIN

CITY           SKY/WX    TMP DP  RH WIND       PRES   REMARKS
MEDFORD        RAIN      64  63  97 CALM      29.78R
WAUSAU         MOCLDY    66  64  93 CALM      29.75R
MOSINEE        PTCLDY    64  64 100 NW3       29.77R
MARSHFIELD     PTCLDY    66  62  87 N6        29.77R
WISC RAPIDS    PTCLDY    67  63  87 W3        29.78R
STEVENS POINT  CLOUDY    65  61  86 CALM      29.77R
WAUPACA        MOCLDY    69  64  84 N3        29.75R
SHAWANO        MOCLDY    69  65  86 W5        29.73S
CLINTONVILLE   CLOUDY    68  63  83 NW6       29.73S
$$

WIZ038-039-048-051-200300-
FOX VALLEY

CITY           SKY/WX    TMP DP  RH WIND       PRES   REMARKS
NWS GREEN BAY  MOCLDY    67  65  93 CALM      29.72R
APPLETON       MOCLDY    66  63  88 NW7       29.75R
OSHKOSH        CLEAR     70  63  78 W3        29.74R
FOND DU LAC    CLEAR     69  61  75 W5        29.75R
$$

WIZ022-050-052-200300-
EAST CENTRAL WISCONSIN

CITY           SKY/WX    TMP DP  RH WIND       PRES   REMARKS
STURGEON BAY   CLOUDY    66  63  88 W3        29.72R
MANITOWOC      CLEAR     70  64  81 W5        29.73R
SHEBOYGAN      CLEAR     68  62  81 SW3       29.74R
$$

LMZ563-521-522-541>543-200300-
LAKESHORE

STATION/POSITION TIME  TEMP    WIND        PRES    VSBY  WAVE
                       AIR SEA DIR/SP/G                  HT/PER
                 (UTC) (F)     (DEG/KT/KT) (MB)    (MI)  (FT/S)
SHEBOYGAN LKSHOR 0200   70 65  220/  5/  5 1007.0R
KEWAUNEE LKSHORE 0200   68     320/  1/  2 1005.5R
ALGOMA MARINA    0100           10/ 11/ 14   N/A
NORTHPORT PIER   0200   65     290/  5/  7 1005.4R
N MID LAKE BUOY  0200   63 62  180/  8/  8 1004.6R         1/ 4
S GREEN BAY BUOY 0200   68     VRB  4      1007.2S
CHAMBERS ISLAND  0200   66     220/  4/  7 1005.8S
MENOMINEE LKSHOR 0200   68     260/  2/  4 1006.6R
$$


USA.gov is the U.S. government's official web portal to all federal, state and local government web resources and services.